EW3714 Weather Reports


Display with metric or nautical units.
time (UTC)temp
F
wind
direction
speed
MPH
gust
MPH
rain 1hr
in
rain 24hr
in
rain mn
in
humidity
%
barometer
mb
20260510015807 80 89 1.0 2.0 0.00 0.02 0.02 72 1010.0
20260510015306 81 82 1.0 2.0 0.00 0.02 0.02 72 1009.8
20260510014758 81 98 1.0 1.0 0.00 0.02 0.02 72 1009.7
20260510014256 81 94 1.0 2.0 0.00 0.02 0.02 71 1009.6
20260510013752 82 96 0.0 1.0 0.00 0.02 0.02 69 1009.7
20260510013248 82 110 0.0 1.0 0.00 0.02 0.02 69 1009.6
20260510012743 82 60 1.0 1.0 0.00 0.02 0.02 68 1009.7
20260510012238 82 89 0.0 1.0 0.00 0.02 0.02 67 1009.6
20260510011737 83 95 1.0 1.0 0.00 0.02 0.02 66 1009.5
20260510011233 83 77 1.0 2.0 0.00 0.02 0.02 65 1009.6
20260510010730 84 35 2.0 2.0 0.00 0.02 0.02 64 1009.5
20260510010227 84 100 1.0 2.0 0.00 0.02 0.02 63 1009.4
20260510005724 84 95 0.0 2.0 0.00 0.02 0.02 61 1009.3
20260510005220 85 107 1.0 2.0 0.00 0.02 0.02 60 1009.5
20260510004718 85 77 1.0 2.0 0.00 0.02 0.02 60 1009.3
20260510004216 86 89 2.0 2.0 0.00 0.02 0.02 59 1009.1
20260510003713 86 81 0.0 2.0 0.00 0.02 0.02 59 1009.2
20260510003209 86 146 1.0 2.0 0.00 0.02 0.02 57 1009.3
20260510002708 86 81 0.0 1.0 0.00 0.02 0.02 59 1009.3
20260510002206 86 151 1.0 2.0 0.00 0.02 0.02 58 1009.0
20260510001702 87 84 0.0 2.0 0.00 0.02 0.02 58 1009.1
20260510001201 87 137 0.0 2.0 0.00 0.02 0.02 56 1009.1
20260510000656 87 104 0.0 2.0 0.00 0.02 0.02 52 1009.2
20260510000154 87 126 0.0 2.0 0.00 0.02 0.02 51 1009.0
20260509235650 88 67 0.0 1.0 0.00 0.02 0.02 50 1008.9
20260509235147 88 117 0.0 1.0 0.00 0.02 0.02 47 1009.0
20260509234643 88 70 1.0 2.0 0.00 0.02 0.02 47 1008.9
20260509234140 88 160 1.0 2.0 0.00 0.02 0.02 46 1008.9
20260509233638 88 50 0.0 2.0 0.00 0.02 0.02 47 1008.8
20260509233135 88 62 0.0 2.0 0.00 0.02 0.02 46 1008.9
20260509232631 88 137 1.0 2.0 0.00 0.02 0.02 46 1008.9
20260509232128 88 138 1.0 1.0 0.00 0.02 0.02 45 1008.8
20260509231625 88 44 0.0 0.0 0.00 0.02 0.02 45 1008.7
20260509231123 89 113 0.0 0.0 0.00 0.02 0.02 45 1008.8
20260509230619 89 175 0.0 2.0 0.00 0.02 0.02 45 1008.7
20260509230116 89 201 0.0 1.0 0.00 0.02 0.02 45 1008.7
20260509225612 89 85 0.0 1.0 0.00 0.02 0.02 44 1008.8
20260509225108 89 129 0.0 1.0 0.00 0.02 0.02 44 1008.7
20260509224603 89 89 0.0 2.0 0.00 0.02 0.02 43 1008.9
20260509224100 89 32 0.0 2.0 0.00 0.02 0.02 42 1008.9
20260509223557 89 150 0.0 1.0 0.00 0.02 0.02 43 1008.8
20260509223055 89 129 0.0 2.0 0.00 0.02 0.02 44 1008.8
20260509222551 89 142 0.0 0.0 0.00 0.02 0.02 43 1008.7
20260509222047 89 26 0.0 2.0 0.00 0.02 0.02 44 1008.9
20260509221542 89 25 0.0 2.0 0.00 0.02 0.02 44 1008.9
20260509221039 88 74 1.0 2.0 0.00 0.02 0.02 44 1008.7
20260509220535 88 66 1.0 2.0 0.00 0.02 0.02 44 1008.8
20260509220031 89 75 2.0 2.0 0.00 0.02 0.02 48 1008.8
20260509215526 89 48 0.0 3.0 0.00 0.02 0.02 50 1008.9
20260509215024 90 142 0.0 1.0 0.00 0.02 0.02 52 1008.9
20260509214521 89 117 0.0 1.0 0.00 0.02 0.02 50 1009.0
20260509214018 89 166 1.0 2.0 0.00 0.02 0.02 50 1009.0
20260509213514 89 113 0.0 3.0 0.00 0.02 0.02 49 1009.1
20260509213011 89 32 2.0 2.0 0.00 0.02 0.02 46 1009.2
20260509212508 89 242 0.0 2.0 0.00 0.02 0.02 49 1009.0
20260509212005 90 198 2.0 3.0 0.00 0.02 0.02 49 1009.3
20260509211500 90 205 0.0 1.0 0.00 0.02 0.02 47 1009.2
20260509210957 91 121 0.0 3.0 0.00 0.02 0.02 46 1009.5
20260509210454 93 22 1.0 4.0 0.00 0.02 0.02 41 1009.6
20260509205949 94 233 0.0 2.0 0.00 0.02 0.02 35 1009.5
20260509205444 97 11 0.0 1.0 0.00 0.02 0.02 35 1009.4
20260509204941 96 269 0.0 1.0 0.00 0.02 0.02 33 1009.4
20260509204437 96 32 0.0 1.0 0.00 0.02 0.02 35 1009.5
20260509203934 95 180 2.0 2.0 0.00 0.02 0.02 35 1009.3
20260509203429 95 122 0.0 2.0 0.00 0.02 0.02 35 1009.5
20260509202927 94 229 0.0 2.0 0.00 0.02 0.02 36 1009.6
20260509202423 94 150 0.0 4.0 0.00 0.02 0.02 38 1009.7
20260509201918 94 319 0.0 1.0 0.00 0.02 0.02 38 1009.7
20260509201414 93 223 0.0 4.0 0.00 0.02 0.02 39 1010.0
20260509200911 94 187 2.0 2.0 0.00 0.02 0.02 37 1010.2
20260509200411 93 224 0.0 2.0 0.00 0.02 0.02 37 1010.5
20260509195908 92 26 1.0 3.0 0.00 0.02 0.02 38 1010.5
20260509195403 93 174 0.0 2.0 0.00 0.02 0.02 37 1010.7
20260509194902 93 42 2.0 2.0 0.00 0.02 0.02 39 1010.6
20260509194359 90 62 0.0 2.0 0.00 0.02 0.02 44 1010.7
20260509193855 89 249 0.0 2.0 0.00 0.02 0.02 50 1010.5
20260509193355 87 193 1.0 2.0 0.00 0.02 0.02 54 1010.5
20260509192852 89 13 1.0 1.0 0.00 0.02 0.02 50 1010.4
20260509192348 91 127 0.0 2.0 0.00 0.02 0.02 52 1010.2
20260509191843 92 129 0.0 1.0 0.00 0.02 0.02 51 1010.1
20260509191339 91 130 1.0 4.0 0.00 0.02 0.02 49 1010.4
20260509190835 91 29 0.0 2.0 0.00 0.02 0.02 53 1010.2
20260509190333 92 129 0.0 2.0 0.00 0.02 0.02 51 1010.2
20260509185830 91 15 0.0 1.0 0.00 0.02 0.02 54 1010.1
20260509185326 90 164 0.0 1.0 0.00 0.02 0.02 56 1010.1
20260509184824 90 187 2.0 2.0 0.00 0.02 0.02 56 1010.6
20260509184321 91 132 2.0 3.0 0.00 0.02 0.02 54 1010.5
20260509183817 92 47 1.0 3.0 0.00 0.02 0.02 55 1010.6
20260509183312 92 187 1.0 2.0 0.00 0.02 0.02 55 1010.8
20260509182808 91 151 0.0 1.0 0.00 0.02 0.02 58 1010.8
20260509182307 92 17 2.0 2.0 0.00 0.02 0.02 55 1010.8
20260509181802 93 116 1.0 2.0 0.00 0.02 0.02 53 1011.0
20260509181300 93 66 0.0 2.0 0.00 0.02 0.02 54 1010.9
20260509180757 92 45 1.0 2.0 0.00 0.02 0.02 54 1011.0
20260509180253 91 103 1.0 4.0 0.00 0.02 0.02 56 1011.0
20260509175750 91 162 0.0 2.0 0.00 0.02 0.02 58 1011.2
20260509175247 90 132 2.0 4.0 0.00 0.02 0.02 60 1011.1
20260509174742 90 44 2.0 3.0 0.00 0.02 0.02 59 1011.1
20260509174238 91 48 3.0 4.0 0.00 0.02 0.02 60 1011.2
20260509173734 91 123 1.0 2.0 0.00 0.02 0.02 62 1011.4
20260509173230 90 56 1.0 2.0 0.00 0.02 0.02 60 1011.7
20260509172726 88 146 2.0 2.0 0.00 0.02 0.02 64 1011.8
20260509172223 87 95 2.0 4.0 0.00 0.02 0.02 65 1011.8
20260509171718 88 108 3.0 4.0 0.00 0.02 0.02 64 1011.8
20260509171215 87 77 2.0 3.0 0.00 0.02 0.02 64 1011.6
20260509170712 87 110 1.0 4.0 0.00 0.02 0.02 66 1011.8
20260509170207 87 110 1.0 2.0 0.00 0.02 0.02 66 1011.6
20260509165706 86 103 0.0 3.0 0.00 0.02 0.02 68 1011.8
20260509165201 85 102 3.0 4.0 0.00 0.02 0.02 68 1011.6
20260509164658 86 79 2.0 3.0 0.00 0.02 0.02 68 1011.8
20260509164153 84 121 2.0 4.0 0.00 0.02 0.02 72 1011.9
20260509163651 83 128 1.0 5.0 0.00 0.02 0.02 74 1011.7
20260509163147 82 93 3.0 3.0 0.00 0.02 0.02 76 1011.8
20260509162645 81 51 2.0 3.0 0.00 0.02 0.02 78 1011.8
20260509162140 81 87 2.0 3.0 0.00 0.02 0.02 79 1011.7
20260509161637 81 134 1.0 4.0 0.00 0.02 0.02 79 1011.8
20260509161132 80 57 2.0 5.0 0.00 0.02 0.02 80 1011.7
20260509160628 80 97 2.0 4.0 0.00 0.02 0.02 80 1011.8
20260509160123 80 76 3.0 4.0 0.00 0.02 0.02 81 1011.9
20260509155620 79 87 2.0 5.0 0.00 0.02 0.02 81 1011.8
20260509155116 79 149 0.0 3.0 0.00 0.02 0.02 82 1011.9
20260509154612 79 53 1.0 3.0 0.00 0.02 0.02 83 1011.9
20260509154109 78 79 2.0 2.0 0.00 0.02 0.02 85 1011.9
20260509153606 78 73 2.0 4.0 0.00 0.02 0.02 86 1011.8
20260509153103 78 89 2.0 3.0 0.00 0.02 0.02 87 1011.8
20260509152559 78 72 2.0 3.0 0.00 0.02 0.02 85 1011.8
20260509152057 78 126 2.0 3.0 0.00 0.02 0.02 86 1011.7
20260509151552 78 70 2.0 2.0 0.00 0.02 0.02 87 1011.7
20260509151050 78 89 0.0 2.0 0.00 0.02 0.02 87 1011.7
20260509150548 77 80 2.0 2.0 0.00 0.02 0.02 89 1011.7
20260509150046 77 128 2.0 2.0 0.00 0.02 0.02 89 1011.8
20260509145541 76 53 2.0 3.0 0.00 0.02 0.02 90 1011.8
20260509145037 76 112 0.0 2.0 0.00 0.02 0.02 90 1011.7
20260509144534 76 104 1.0 2.0 0.00 0.02 0.02 91 1011.7
20260509144031 76 146 1.0 2.0 0.00 0.02 0.02 91 1011.8
20260509143528 76 111 2.0 3.0 0.00 0.02 0.02 91 1011.7
20260509143026 76 20 0.0 3.0 0.00 0.02 0.02 91 1011.4
20260509142521 76 73 2.0 2.0 0.00 0.02 0.02 92 1011.4
20260509142017 75 97 1.0 3.0 0.00 0.02 0.02 93 1011.2
20260509141514 75 213 0.0 2.0 0.00 0.02 0.02 93 1011.3
20260509141010 75 106 1.0 2.0 0.00 0.02 0.02 94 1011.3
20260509140507 74 95 1.0 2.0 0.00 0.02 0.02 94 1011.3
20260509140006 74 77 1.0 2.0 0.00 0.02 0.02 95 1011.0
20260509135502 74 107 0.0 3.0 0.00 0.02 0.02 96 1011.0
20260509134959 74 45 1.0 3.0 0.00 0.02 0.02 96 1011.1
20260509134457 73 108 1.0 2.0 0.00 0.02 0.02 97 1011.2
20260509133954 73 66 1.0 3.0 0.00 0.02 0.02 97 1011.2
20260509133451 73 84 2.0 2.0 0.00 0.02 0.02 98 1011.5
20260509132948 73 101 3.0 4.0 0.00 0.02 0.02 98 1011.5
20260509132447 73 80 1.0 3.0 0.00 0.02 0.02 98 1011.6
20260509131943 73 84 1.0 3.0 0.00 0.02 0.02 98 1011.7
20260509131440 72 91 1.0 2.0 0.00 0.02 0.02 98 1011.8
20260509130937 72 93 1.0 2.0 0.00 0.02 0.02 98 1011.8
20260509130432 72 92 1.0 2.0 0.00 0.02 0.02 98 1011.9
20260509125930 72 64 0.0 2.0 0.00 0.02 0.02 98 1011.8
20260509125426 72 74 1.0 2.0 0.00 0.02 0.02 98 1011.6
20260509124922 72 106 1.0 2.0 0.00 0.02 0.02 98 1011.7
20260509124419 72 81 1.0 2.0 0.00 0.02 0.02 98 1011.5
20260509123917 72 95 1.0 2.0 0.00 0.02 0.02 98 1011.5
20260509123414 72 94 2.0 2.0 0.00 0.02 0.02 98 1011.3
20260509122910 72 96 2.0 2.0 0.00 0.02 0.02 98 1011.3
20260509122407 72 128 1.0 2.0 0.00 0.02 0.02 98 1011.0
20260509121904 72 122 0.0 2.0 0.00 0.02 0.02 98 1011.2
20260509121401 72 109 1.0 2.0 0.00 0.02 0.02 98 1011.2
20260509120859 72 104 2.0 2.0 0.00 0.02 0.02 98 1011.0
20260509120356 72 110 2.0 2.0 0.00 0.02 0.02 98 1011.0
20260509115854 72 100 0.0 2.0 0.00 0.02 0.02 98 1011.3
20260509115351 72 65 2.0 3.0 0.02 0.02 0.02 98 1011.4
20260509114849 72 56 1.0 2.0 0.02 0.02 0.02 98 1011.5
20260509114347 72 64 2.0 2.0 0.00 0.02 0.02 98 1011.8
20260509113846 72 97 2.0 2.0 0.00 0.02 0.02 98 1011.7
20260509113343 72 213 1.0 2.0 0.00 0.02 0.02 98 1011.7
20260509112839 72 89 1.0 2.0 0.00 0.02 0.02 98 1012.4
20260509112337 72 50 1.0 2.0 0.00 0.02 0.02 98 1012.3
20260509111834 72 82 1.0 2.0 0.00 0.02 0.02 98 1012.3
20260509111331 72 109 2.0 2.0 0.00 0.02 0.02 98 1012.3
20260509110829 72 84 1.0 2.0 0.00 0.02 0.02 98 1012.4
20260509110324 72 61 1.0 2.0 0.05 0.02 0.02 97 1012.1
20260509105823 72 113 2.0 2.0 0.09 0.02 0.02 97 1012.4
20260509105321 72 89 0.0 2.0 0.05 0.01 0.01 97 1012.5
20260509104817 72 79 1.0 2.0 0.00 0.00 0.00 97 1012.6
20260509104314 73 87 1.0 2.0 0.00 0.00 0.00 97 1012.1
20260509103812 73 99 2.0 2.0 0.00 0.00 0.00 97 1012.3
20260509103309 73 79 1.0 2.0 0.00 0.00 0.00 97 1012.4
20260509102807 73 96 1.0 2.0 0.00 0.00 0.00 97 1012.5
20260509102306 73 73 1.0 2.0 0.00 0.00 0.00 97 1012.3
20260509101800 73 69 1.0 2.0 0.00 0.00 0.00 97 1012.3
20260509101256 73 58 1.0 2.0 0.00 0.00 0.00 97 1012.2
20260509100754 73 67 0.0 2.0 0.00 0.00 0.00 97 1011.9
20260509100251 73 78 1.0 2.0 0.00 0.00 0.00 97 1011.6
20260509095747 73 84 1.0 2.0 0.00 0.00 0.00 97 1011.3
20260509095245 73 65 1.0 2.0 0.00 0.00 0.00 97 1011.0
20260509094742 73 80 1.0 2.0 0.00 0.00 0.00 97 1011.1
20260509094239 73 91 1.0 2.0 0.00 0.00 0.00 97 1011.0
20260509093737 73 86 1.0 2.0 0.00 0.00 0.00 97 1011.0
20260509093234 73 83 1.0 2.0 0.00 0.00 0.00 97 1011.0
20260509092732 73 75 1.0 2.0 0.00 0.00 0.00 97 1011.0
20260509092230 73 87 1.0 2.0 0.00 0.00 0.00 97 1010.9
20260509091728 73 95 1.0 2.0 0.00 0.00 0.00 97 1010.9
20260509091223 73 86 1.0 2.0 0.00 0.00 0.00 97 1010.8
20260509090721 73 84 1.0 2.0 0.00 0.00 0.00 97 1011.1
20260509090218 73 86 2.0 2.0 0.02 0.00 0.00 96 1010.9
20260509085716 73 89 1.0 1.0 0.02 0.00 0.00 96 1011.0
20260509085213 73 74 1.0 2.0 0.00 0.00 0.00 96 1010.8
20260509084709 73 77 1.0 2.0 0.00 0.00 0.00 96 1011.0
20260509084206 73 71 2.0 2.0 0.00 0.00 0.00 96 1011.1
20260509083704 73 95 0.0 2.0 0.00 0.00 0.00 96 1011.2
20260509083200 73 86 2.0 2.0 0.00 0.00 0.00 96 1011.1
20260509082657 73 79 1.0 2.0 0.00 0.00 0.00 96 1011.1
20260509082153 73 86 2.0 2.0 0.00 0.00 0.00 96 1011.5
20260509081651 73 77 1.0 2.0 0.00 0.00 0.00 96 1011.6
20260509081148 73 68 1.0 2.0 0.00 0.00 0.00 95 1011.4
20260509080646 73 82 1.0 2.0 0.00 0.00 0.00 95 1011.2
20260509080144 73 95 1.0 2.0 0.00 0.00 0.00 95 1011.2
20260509075642 73 89 1.0 2.0 0.00 0.00 0.00 95 1011.4
20260509075139 73 80 1.0 2.0 0.00 0.00 0.00 94 1011.4
20260509074636 73 66 1.0 2.0 0.00 0.00 0.00 94 1011.5
20260509074132 73 82 2.0 2.0 0.00 0.00 0.00 94 1011.5
20260509073629 73 84 1.0 2.0 0.00 0.00 0.00 94 1011.4
20260509073125 73 84 1.0 2.0 0.00 0.00 0.00 94 1011.5
20260509072622 73 66 2.0 2.0 0.00 0.00 0.00 93 1011.6
20260509072119 73 87 1.0 2.0 0.00 0.00 0.00 93 1011.7
20260509071616 73 85 1.0 2.0 0.00 0.00 0.00 93 1011.7
20260509071113 73 80 1.0 1.0 0.00 0.00 0.00 93 1011.7
20260509070610 73 89 1.0 2.0 0.00 0.00 0.00 93 1011.8
20260509070106 73 61 1.0 2.0 0.00 0.00 0.00 93 1011.6
20260509065602 73 87 1.0 2.0 0.00 0.00 0.00 93 1011.8
20260509065058 73 79 1.0 2.0 0.00 0.00 0.00 93 1011.5
20260509064556 73 57 2.0 2.0 0.00 0.00 0.00 93 1011.4
20260509064054 73 99 1.0 2.0 0.00 0.00 0.00 92 1011.2
20260509063549 73 107 1.0 2.0 0.00 0.00 0.00 92 1011.4
20260509063047 73 67 1.0 2.0 0.00 0.00 0.00 92 1011.2
20260509062544 73 101 1.0 3.0 0.00 0.00 0.00 92 1011.5
20260509062041 73 84 0.0 2.0 0.00 0.00 0.00 92 1011.5
20260509061538 73 82 2.0 3.0 0.00 0.00 0.00 91 1011.2
20260509061035 74 49 3.0 3.0 0.00 0.00 0.00 91 1011.0
20260509060533 74 85 0.0 3.0 0.00 0.00 0.00 91 1011.0
20260509060028 74 76 2.0 3.0 0.00 0.00 0.00 91 1010.8
20260509055524 74 99 2.0 2.0 0.00 0.00 0.00 90 1011.0
20260509055020 74 51 2.0 2.0 0.00 0.00 0.00 90 1010.9
20260509054517 74 85 2.0 3.0 0.00 0.00 0.00 90 1011.1
20260509054015 74 64 0.0 2.0 0.00 0.00 0.00 90 1011.1
20260509053513 74 83 1.0 2.0 0.00 0.00 0.00 90 1011.0
20260509053010 74 49 2.0 2.0 0.00 0.00 0.00 90 1010.8
20260509052508 74 42 1.0 2.0 0.00 0.00 0.00 90 1010.7
20260509052006 74 45 2.0 2.0 0.00 0.00 0.00 89 1010.4
20260509051503 74 113 1.0 2.0 0.00 0.00 0.00 89 1010.5
20260509051000 74 69 1.0 2.0 0.00 0.00 0.00 89 1010.4
20260509050456 74 69 1.0 2.0 0.00 0.00 0.00 89 1010.5
20260509045953 75 91 2.0 2.0 0.00 0.00 0.00 88 1010.4
20260509045450 75 84 1.0 2.0 0.00 0.00 0.00 88 1010.5
20260509044947 75 70 1.0 2.0 0.00 0.00 0.00 88 1010.6
20260509044445 75 66 1.0 2.0 0.00 0.00 0.00 87 1010.5
20260509043942 75 51 2.0 2.0 0.00 0.00 0.00 87 1010.4
20260509043438 75 12 1.0 2.0 0.00 0.00 0.00 87 1010.6
20260509042933 75 84 1.0 2.0 0.00 0.00 0.00 87 1010.6
20260509042431 75 95 1.0 2.0 0.00 0.00 0.00 87 1010.8
20260509041927 75 16 0.0 4.0 0.00 0.00 0.00 87 1010.8
20260509041424 75 70 1.0 2.0 0.00 0.00 0.00 87 1011.0
20260509040922 75 56 2.0 2.0 0.00 0.00 0.00 87 1010.9
20260509040420 75 107 1.0 2.0 0.00 0.00 0.00 87 1010.9
20260509035916 75 134 2.0 3.0 0.00 0.00 0.00 86 1010.8
20260509035413 75 61 2.0 2.0 0.00 0.00 0.00 86 1010.8
20260509034909 75 54 2.0 2.0 0.00 0.00 0.00 86 1010.8
20260509034408 75 42 1.0 2.0 0.00 0.00 0.00 86 1010.7
20260509033904 75 130 2.0 3.0 0.00 0.00 0.00 86 1010.5
20260509033401 75 77 1.0 2.0 0.00 0.00 0.00 87 1010.5
20260509032858 74 109 1.0 2.0 0.00 0.00 0.00 87 1010.7
20260509032355 74 61 2.0 2.0 0.00 0.00 0.00 87 1010.7
20260509031853 74 79 1.0 2.0 0.00 0.00 0.00 87 1010.7
20260509031350 74 106 1.0 2.0 0.00 0.00 0.00 87 1010.7
20260509030847 74 86 2.0 2.0 0.00 0.00 0.00 88 1010.6
20260509030346 74 88 2.0 2.0 0.00 0.00 0.00 88 1010.6
20260509025842 74 89 1.0 2.0 0.00 0.00 0.00 88 1010.6
20260509025337 74 85 2.0 2.0 0.00 0.00 0.00 87 1010.4
20260509024833 74 86 1.0 2.0 0.00 0.00 0.00 87 1010.1
20260509024329 74 76 2.0 2.0 0.00 0.00 0.00 87 1010.1
20260509023827 74 110 1.0 2.0 0.00 0.00 0.00 86 1010.1
20260509023324 74 89 1.0 2.0 0.00 0.00 0.00 86 1010.1
20260509022821 75 88 2.0 2.0 0.00 0.00 0.00 86 1010.1
20260509022318 75 105 1.0 2.0 0.00 0.00 0.00 85 1009.7
20260509021814 75 86 0.0 2.0 0.00 0.00 0.00 84 1010.0
20260509021312 75 125 1.0 2.0 0.00 0.00 0.00 84 1009.8
20260509020809 76 75 0.0 2.0 0.00 0.00 0.00 84 1009.7
20260509020307 76 89 1.0 2.0 0.00 0.00 0.00 83 1009.7